SCP
-0 0 0 0 0 0 0 0 -0 -0 -0 -0 -0 -0 0 -0 -0 -0 -0 0 0 -0 -0 -0 -0 -0 -0 -0 -0 -0 -0 -0 -0 0 0 0 0 0 -0 -0 -0 -0 -0 -0 -0 -0 0 0 0
-0 0 0 -0 0 0 0 0 0 -0 -0 -0 -0 0 -0 -0 -0 -0 0 -0 -0 -0 -0 -0 -0 -0 -0 -0 -0 -0 -0 -0 -0 -0 -0 0 -0 -0 -0 0 0 0 -0 -0 -0 -0 -0 0 0
-0 -0 0 -0 -0 0 0 0 0 0 -0 -0 0 -0 -0 0 -0 -0 0 -0 0 -0 -0 -0 -0 -0 -0 -0 -0 -0 -0 -0 -0 -0 -0 -0 -0 -0 -0 0 0 0 0 0 0 -0 -0 0 0
-0 -0 0 0 0 0 0 0 0 0 0 -0 -0 -0 -0 -0 0 -0 -0 -0 -0 -0 -0 -0 -0 -0 -0 -0 -0 -0 -0 -0 0 -0 -0 -0 -0 -0 -0 -0 -0 -0 0 0 0 -0 -0 0 0
-0 0 0 -0 0 0 0 0 0 0 0 -0 0 -0 -0 -0 -0 -0 -0 -0 -0 -0 -0 -0 -0 -0 -0 -0 -0 -0 -0 -0 -0 -0 -0 -0 -0 -0 -0 0 0 -0 -0 -0 -0 -0 -0 0 0
0 0 -0 0 0 0 0 0 0 0 0 -0 0 0 -0 -0 -0 -0 -0 -0 -0 -0 -0 -0 -0 -0 -0 -0 -0 -0 -0 -0 -0 -0 -0 -0 0 -0 0 0 0 0 0 0 0 -0 0 0 0
0 0 -0 0 0 0 0 0 0 0 0 0 0 0 -0 -0 -0 0 0 0 -0 0 0 0 -0 -0 -0 -0 0 -0 -0 0 0 0 0 0 0 -0 0 0 0 0 0 0 0 0 0 0 0
0 0 0 0 0 0 0 0 0 0 0 0 0 0 0 0 0 0 0 0 0 0 0 0 0 0 -0 0 0 0 0 0 0 0 0 0 0 0 0 0 0 0 0 0 0 0 0 0 0
0 0 0 0 0 0 0 0 0 0 0 0 0 0 0 0 0 0 0 0 0 0 0 0 0 0 0 0 0 0 0 0 0 0 0 0 0 0 0 0 0 0 0 0 0 0 0 0 0
0 0 0 0 0 0 0 0 0 0 0 0 0 0 0 0 0 0 0 0 0 0 0 0 0 0 0 0 0 0 0 0 0 0 0 0 0 0 0 0 0 0 0 0 0 0 0 0 0
0 0 0 0 0 0 0 0 0 0 0 0 0 0 0 0 0 0 0 0 0 0 0 0 0 0 0 0 0 0 0 0 0 0 0 0 0 0 0 0 0 0 0 0 0 0 0 0 0
0 0 0 0 0 0 0 0 0 0 0 0 0 0 0 0 0 0 0 0 0 0 0 0 0 0 0 0 0 0 0 0 0 0 0 0 0 0 0 0 0 0 0 0 0 0 0 0 0
0 0 0 0 0 0 0 0 0 0 0 0 0 0 0 0 0 0 0 0 0 0 0 0 0 0 0 0 0 0 0 0 0 0 0 0 0 0 0 0 0 0 0 0 0 0 0 0 0
0 0 0 0 0 0 0 0 0 0 0 0 0 0 0 0 0 0 0 0 0 0 0 0 0 0 0 0 0 0 0 0 0 0 0 0 0 0 0 0 0 0 0 0 0 0 0 0 0
0 0 0 0 0 0 0 0 0 0 0 0 0 0 0 0 0 0 0 0 0 0 0 0 0 0 0 0 0 0 0 0 0 0 0 0 0 0 0 0 0 0 0 0 0 0 0 0 0
0 0 0 0 0 0 0 0 0 0 0 0 0 0 0 0 0 0 0 0 0 0 0 0 0 0 0 0 0 0 0 0 0 0 0 0 0 0 0 0 0 0 0 0 0 0 0 0 0
0 0 0 0 0 0 0 0 0 0 0 0 0 0 0 0 0 0 0 0 0 0 0 0 0 0 0 0 0 0 0 0 0 0 0 0 0 0 0 0 0 0 0 0 0 0 0 0 0
0 0 0 0 0 0 0 0 0 0 0 0 0 0 0 0 0 0 0 0 0 0 0 0 0 0 0 0 0 0 0 0 0 0 0 0 0 0 0 0 0 0 0 0 0 0 0 0 0
0 0 0 0 0 0 0 0 0 0 0 0 0 0 0 0 0 0 0 0 0 0 0 0 0 0 0 0 0 0 0 0 0 0 0 0 0 0 0 0 0 0 0 0 0 0 0 0 0
0 0 0 0 0 0 0 0 0 0 0 0 0 0 0 0 0 0 0 0 0 0 0 0 0 0 0 0 0 0 0 0 0 0 0 0 0 0 0 0 0 0 0 0 0 0 0 0 0
0 0 0 0 0 0 0 0 0 0 0 0 0 0 0 0 0 0 0 0 0 0 0 0 0 0 0 0 0 0 0 0 0 0 0 0 0 0 0 0 0 0 0 0 0 0 0 0 0
0 0 0 0 0 0 0 0 0 0 0 0 0 0 0 0 0 0 0 0 0 0 0 0 0 0 0 0 0 0 0 0 0 0 0 0 0 0 0 0 0 0 0 0 0 0 0 0 0
0 0 0 0 0 0 0 0 0 0 0 0 0 0 0 0 0 0 0 0 0 0 0 0 0 0 0 0 0 0 0 0 0 0 0 0 0 0 0 0 0 0 0 0 0 0 0 0 0
0 0 0 0 0 0 0 0 0 0 0 0 0 0 0 0 0 0 0 0 0 0 0 0 0 0 0 0 0 0 0 0 0 0 0 0 0 0 0 0 0 0 0 0 0 0 0 0 0
0 0 0 0 0 0 0 0 0 0 0 0 0 0 0 0 0 0 0 0 0 0 0 0 0 0 0 0 0 0 0 0 0 0 0 0 0 0 0 0 0 0 0 0 0 0 0 0 0
0 0 0 0 0 0 0 0 0 0 0 0 0 0 0 0 0 0 0 0 0 0 0 0 0 0 0 0 0 0 0 0 0 0 0 0 0 0 0 0 0 0 0 0 0 0 0 0 0
0 0 0 0 0 0 0 0 0 0 0 0 0 0 0 0 0 0 0 0 0 0 0 0 0 0 0 0 0 0 0 0 0 0 0 0 0 0 0 0 0 0 0 0 0 0 0 0 0
0 0 0 0 0 0 0 0 0 0 0 0 0 0 0 0 0 0 0 0 0 0 0 0 0 0 0 0 0 0 0 0 0 0 0 0 0 0 0 0 0 0 0 0 0 0 0 0 0
0 0 0 0 0 0 0 0 0 0 0 0 0 0 0 0 0 0 0 0 0 0 0 0 0 0 0 0 0 0 0 0 0 0 0 0 0 0 0 0 0 0 0 0 0 0 0 0 0
0 0 0 0 0 0 0 0 0 0 0 0 0 0 0 0 0 0 0 0 0 0 0 0 0 0 0 0 0 0 0 0 0 0 0 0 0 0 0 0 0 0 0 0 0 0 0 0 0
Wind_Speed_500mb
5 4 5 3 9 7 9 8 3 4 6 12 10 14 20 24 20 9 3 5 3 20 27 30 22 19 21 20 19 17 14 11 8 7 7 9 6 6 10 14 16 18 18 16 16 16 15 14 13
7 6 2 7 9 11 11 12 8 9 12 7 6 3 10 23 20 16 5 2 3 19 27 28 27 23 22 19 17 17 15 10 4 4 5 4 2 4 10 12 13 16 16 15 12 12 11 11 10
7 4 8 6 8 6 10 8 12 9 7 2 5 7 7 14 21 10 5 6 10 17 24 25 29 26 23 22 18 16 13 8 6 6 4 2 3 8 8 8 12 16 17 14 10 10 10 10 8
3 4 8 12 3 7 7 9 7 12 6 3 2 16 15 17 6 10 10 11 12 14 25 28 26 25 23 21 19 17 14 11 9 7 3 1 4 5 6 9 14 19 21 13 6 6 8 8 6
4 8 8 6 5 8 7 6 3 8 8 9 4 12 14 15 14 14 10 12 10 12 19 23 26 21 22 20 19 18 18 15 12 9 4 2 4 9 4 11 17 20 20 12 7 8 10 9 7
8 8 11 12 11 9 7 6 5 6 7 11 6 11 13 11 9 8 9 6 11 12 18 16 29 28 24 20 18 16 15 15 14 11 7 7 4 10 12 13 17 19 19 12 9 10 11 9 7
8 8 11 8 10 12 9 6 13 9 9 9 2 6 21 10 6 3 3 5 7 11 14 13 16 28 29 26 21 18 18 16 13 12 11 12 8 8 13 17 20 20 16 12 11 12 12 9 6
5 7 6 9 13 13 11 12 6 9 10 4 2 6 17 7 4 1 6 7 11 14 18 23 26 29 31 22 26 24 22 19 16 15 16 18 18 14 13 18 19 23 18 15 14 14 13 11 7
1 8 10 7 12 10 13 14 8 3 6 6 2 2 5 9 9 6 5 7 12 15 18 19 21 25 33 33 26 29 29 25 21 22 20 17 19 15 12 15 24 24 20 18 15 15 16 14 11
7 8 6 5 2 7 15 10 10 11 15 12 8 2 5 10 4 6 10 9 15 18 21 23 24 25 27 32 34 21 23 27 23 21 18 17 17 18 10 16 19 18 20 21 23 20 16 18 16
2 8 4 5 3 3 9 10 7 12 14 9 4 2 4 1 1 5 9 14 18 20 25 29 30 31 31 31 33 34 29 24 21 17 19 18 18 19 17 16 21 19 19 19 22 26 23 23 20
11 4 3 2 5 5 10 4 11 11 5 6 5 6 4 2 2 3 4 6 10 14 18 22 24 28 36 33 30 25 24 28 23 21 19 17 18 19 15 14 13 14 19 19 21 19 21 28 26
13 4 6 10 9 11 8 18 18 12 8 8 6 8 6 5 4 6 8 10 12 16 19 22 24 26 25 33 29 27 32 29 30 26 21 18 18 15 15 14 14 16 16 22 22 22 23 23 30
4 9 12 14 21 17 16 21 8 15 15 11 10 6 5 7 8 9 12 14 17 20 22 23 24 23 21 31 37 33 26 21 19 18 16 14 20 22 21 23 21 18 17 18 17 24 27 29 24
7 14 18 26 28 16 19 20 24 19 21 16 12 8 6 9 10 12 15 16 18 21 19 17 14 22 31 37 39 35 27 23 17 11 11 12 19 19 19 16 15 18 15 24 28 31 26 16 28
10 10 15 15 19 10 20 24 20 22 25 20 14 11 10 13 14 15 16 15 14 13 10 10 14 22 31 41 44 37 31 22 16 12 5 5 4 10 13 12 16 19 23 19 16 14 19 26 28
17 21 21 9 20 10 23 6 21 22 28 25 20 16 12 9 9 13 14 14 12 10 10 16 22 31 38 41 38 34 29 23 17 13 6 7 5 2 6 6 8 10 12 10 11 14 17 22 25
21 26 20 22 13 19 22 28 17 24 28 28 23 19 16 14 11 16 14 14 16 19 22 24 30 31 33 31 34 33 29 22 21 17 13 11 7 5 1 2 5 6 7 9 11 12 17 23 30
23 24 28 22 8 9 27 31 24 34 30 30 27 23 19 16 14 18 21 23 27 30 33 34 37 36 32 34 34 34 31 25 23 18 13 8 4 4 2 5 7 9 10 10 12 12 12 21 23
32 33 34 29 8 9 27 37 32 33 42 39 34 30 27 22 19 24 29 32 35 38 41 42 44 47 42 37 33 31 30 26 19 19 18 15 11 7 4 5 7 8 11 13 15 17 15 21 24
32 35 30 31 1 22 27 42 45 43 29 26 31 31 29 31 29 28 33 34 40 41 42 42 39 38 36 32 32 30 33 36 33 29 24 21 16 13 11 11 12 12 13 16 20 22 23 25 28
34 31 30 27 16 21 8 21 19 31 29 32 40 40 38 37 33 31 37 37 42 45 45 44 42 41 42 40 40 40 38 36 33 28 23 18 14 11 10 11 12 13 16 18 21 23 25 25 26
17 3 15 22 26 31 36 17 16 11 27 37 45 48 47 44 40 39 40 45 48 49 49 47 47 46 42 38 33 30 31 31 29 25 20 15 12 10 9 9 11 14 17 20 21 23 25 27 27
20 11 4 7 17 26 36 34 28 25 29 31 46 53 52 49 43 40 47 50 51 52 50 47 44 41 38 35 32 29 28 27 24 19 13 12 9 8 9 11 13 15 18 20 23 26 27 28 29
27 16 9 10 11 17 4 27 34 9 12 22 49 63 62 55 51 50 56 53 53 51 49 46 42 40 40 38 35 31 26 23 20 14 11 8 6 4 6 8 11 14 18 21 23 25 28 30 30
34 36 14 13 15 13 4 19 14 3 20 12 49 61 63 60 56 55 56 56 56 54 50 47 45 42 39 34 32 29 27 24 19 15 13 9 6 3 1 5 10 14 16 20 24 26 28 30 32
20 29 30 9 3 8 15 17 11 13 14 17 49 62 67 66 63 64 60 58 58 57 53 49 44 40 39 37 35 32 27 23 20 17 15 12 8 4 1 5 10 16 21 23 25 26 29 31 34
16 19 14 13 12 15 17 26 19 22 30 30 39 58 62 63 62 62 64 64 60 55 51 48 47 44 39 37 35 33 29 26 23 19 15 11 7 1 4 10 15 19 23 27 29 31 32 34 38
15 20 20 16 18 7 9 14 19 29 36 43 41 62 70 72 72 74 74 70 64 59 56 53 50 46 42 39 36 34 32 28 24 20 15 11 6 3 7 14 21 26 28 30 32 33 37 41 44
39 30 42 13 13 19 14 21 4 5 25 42 50 59 67 73 75 74 76 73 69 66 62 59 54 49 46 44 43 40 36 31 25 21 16 13 8 7 14 20 24 28 29 31 34 36 39 42 47
Wind_Direction_500mb
3 60 98 298 236 242 126 104 359 107 126 51 41 17 59 43 21 48 24 150 116 164 184 185 182 181 188 177 173 169 161 150 133 109 94 104 106 47 29 22 21 24 26 26 26 26 29 33 39
70 91 6 272 255 190 120 129 135 66 72 80 82 127 62 78 55 76 72 1 96 163 173 179 178 182 197 190 184 180 177 177 181 125 119 113 89 2 2 7 13 8 10 12 15 16 19 20 26
75 71 272 273 288 72 133 159 111 102 88 130 125 29 38 42 46 63 50 73 97 153 164 191 182 184 195 191 194 194 196 204 187 188 150 112 299 318 353 7 357 355 354 348 355 4 6 6 8
5 269 240 255 191 62 86 128 108 147 118 109 106 97 91 41 59 38 110 92 117 146 165 207 190 185 200 201 202 205 210 208 213 199 192 161 22 46 353 348 352 352 347 327 339 355 356 356 359
335 250 249 245 138 122 122 93 153 167 122 129 223 123 90 46 64 74 91 80 117 138 169 210 199 184 201 211 210 213 216 214 216 222 244 182 282 346 339 348 353 358 9 19 17 3 355 356 355
235 277 242 215 180 148 146 129 189 197 145 124 168 135 88 73 93 84 93 94 109 155 177 191 200 202 206 213 215 219 224 227 228 233 227 217 289 351 9 350 348 350 3 9 3 357 359 3 7
297 266 292 300 185 182 167 164 208 175 163 123 82 196 139 80 77 104 106 127 145 163 171 180 206 211 209 211 214 225 231 235 238 250 251 221 236 292 336 340 343 346 348 355 350 353 354 358 3
300 264 246 231 203 209 158 174 164 236 118 127 20 198 163 238 328 39 214 200 208 202 191 190 194 205 202 221 219 223 230 231 228 236 242 237 241 270 303 318 330 327 322 337 351 355 354 354 349
349 247 234 217 226 206 171 193 177 219 203 141 84 98 236 277 286 235 228 240 226 222 223 221 222 210 206 197 215 225 232 237 235 237 239 245 247 254 275 316 315 333 347 325 324 341 348 347 341
266 267 307 4 241 210 178 231 173 219 190 184 111 18 298 302 277 200 206 221 228 234 236 235 234 230 225 215 205 214 232 236 241 241 240 241 237 223 270 305 327 335 344 351 342 336 332 348 346
190 277 65 178 172 198 200 225 225 248 237 45 240 160 312 238 166 175 210 230 238 247 249 247 242 240 236 228 214 209 215 224 230 239 237 227 229 251 270 295 322 322 330 334 344 350 350 353 342
251 217 245 176 189 199 225 265 247 253 54 161 183 208 176 157 175 171 192 217 235 243 250 253 251 247 240 230 216 201 207 217 230 231 227 233 245 256 265 282 295 298 310 313 320 335 340 337 340
245 225 215 205 186 220 259 249 264 216 182 182 206 175 177 200 229 258 266 272 264 255 255 258 257 250 239 220 201 190 200 209 216 229 235 236 234 239 255 272 261 266 278 296 303 314 321 324 334
13 268 252 232 228 230 226 243 203 203 185 177 169 161 200 228 240 260 265 270 275 275 269 262 255 247 212 190 188 191 184 196 213 235 252 263 262 264 259 260 263 265 272 279 283 299 302 308 316
281 281 258 238 228 232 217 240 226 163 168 174 181 191 231 267 279 273 273 275 274 272 272 265 235 208 197 184 182 183 182 189 201 205 224 257 250 261 269 290 277 279 292 290 293 286 293 294 305
251 252 260 112 172 184 195 266 158 181 183 193 204 217 238 265 261 254 249 244 241 231 215 193 175 175 174 173 180 174 173 179 186 175 190 229 246 258 292 300 284 290 298 283 294 292 293 304 310
211 264 228 230 196 160 204 238 167 195 204 211 213 216 225 235 254 253 226 210 200 168 147 136 140 152 160 169 172 170 168 179 169 167 210 172 167 189 277 309 39 349 347 352 329 319 318 314 316
257 227 256 252 164 216 216 251 173 197 209 214 215 213 211 210 217 227 200 176 151 137 130 136 141 148 158 163 164 163 168 165 162 151 152 136 127 107 26 9 343 313 318 321 321 313 312 313 309
280 284 263 267 104 263 243 253 232 202 213 220 218 214 208 199 208 195 178 163 149 144 140 139 140 139 147 152 152 157 158 156 153 147 147 153 157 174 231 294 290 297 290 288 307 318 329 315 329
246 254 257 268 156 249 268 264 257 205 216 220 220 211 200 188 174 175 172 165 156 151 148 147 148 144 147 154 158 166 157 156 158 146 143 138 138 142 118 81 68 46 30 21 13 17 1 350 352
238 246 253 258 339 241 272 269 252 237 215 218 222 209 197 185 169 168 167 166 162 160 157 156 159 162 162 164 163 162 150 140 136 131 125 116 107 95 82 69 56 49 40 30 27 23 19 16 10
248 234 249 262 253 262 170 282 273 211 210 214 211 200 190 178 168 163 162 161 162 162 162 162 162 162 158 152 148 146 146 144 136 132 124 114 106 96 81 59 47 34 26 16 11 10 8 6 7
252 71 225 243 254 270 254 267 273 192 221 212 205 199 188 180 173 164 162 161 158 155 154 152 151 151 152 152 152 151 147 140 135 130 126 124 113 93 76 53 30 16 14 12 10 5 3 2 2
132 118 111 255 260 256 240 230 259 210 227 202 193 193 184 178 173 169 168 162 160 158 158 158 159 159 159 157 153 152 152 147 138 129 124 113 99 76 47 32 20 13 7 2 0 359 355 356 352
197 183 246 241 210 256 314 215 249 199 186 205 184 186 183 179 177 176 173 168 164 162 161 159 161 163 161 162 161 159 156 153 150 149 154 148 130 88 42 18 9 1 356 352 349 347 344 342 341
200 200 200 241 236 267 24 236 240 313 121 163 184 183 181 181 181 182 179 175 171 168 167 168 170 172 170 171 172 170 170 170 169 173 173 162 152 144 40 340 346 347 343 339 338 336 336 334 333
179 224 229 312 146 274 216 250 242 165 179 180 176 180 183 183 184 185 184 181 178 177 175 176 178 181 181 181 181 180 180 180 181 181 180 181 189 191 287 349 349 349 341 338 334 332 332 331 330
222 172 184 212 226 237 242 241 236 209 197 185 182 186 184 184 186 186 188 187 187 185 183 184 185 187 188 189 189 188 188 188 188 187 191 190 181 174 347 348 343 339 335 333 331 330 329 329 328
185 212 220 215 224 250 279 246 194 201 190 188 187 186 185 187 187 189 192 192 191 191 191 191 192 193 193 197 198 197 195 195 193 194 196 200 208 284 330 342 339 335 330 325 324 325 327 328 327
223 215 206 208 196 232 274 257 102 106 183 180 185 188 190 191 189 190 195 197 195 196 197 200 199 199 201 204 203 204 205 200 202 204 206 217 240 292 328 331 327 325 323 320 320 323 324 324 325
Wind_Speed_850mb
5 4 5 3 9 7 9 8 3 4 6 12 10 14 20 24 20 9 3 5 3 20 27 30 22 19 21 20 19 17 14 11 8 7 7 9 6 6 10 14 16 18 18 16 16 16 15 14 13
7 6 2 7 9 11 11 12 8 9 12 7 6 3 10 23 20 16 5 2 3 19 27 28 27 23 22 19 17 17 15 10 4 4 5 4 2 4 10 12 13 16 16 15 12 12 11 11 10
7 4 8 6 8 6 10 8 12 9 7 2 5 7 7 14 21 10 5 6 10 17 24 25 29 26 23 22 18 16 13 8 6 6 4 2 3 8 8 8 12 16 17 14 10 10 10 10 8
3 4 8 12 3 7 7 9 7 12 6 3 2 16 15 17 6 10 10 11 12 14 25 28 26 25 23 21 19 17 14 11 9 7 3 1 4 5 6 9 14 19 21 13 6 6 8 8 6
4 8 8 6 5 8 7 6 3 8 8 9 4 12 14 15 14 14 10 12 10 12 19 23 26 21 22 20 19 18 18 15 12 9 4 2 4 9 4 11 17 20 20 12 7 8 10 9 7
8 8 11 12 11 9 7 6 5 6 7 11 6 11 13 11 9 8 9 6 11 12 18 16 29 28 24 20 18 16 15 15 14 11 7 7 4 10 12 13 17 19 19 12 9 10 11 9 7
8 8 11 8 10 12 9 6 13 9 9 9 2 6 21 10 6 3 3 5 7 11 14 13 16 28 29 26 21 18 18 16 13 12 11 12 8 8 13 17 20 20 16 12 11 12 12 9 6
5 7 6 9 13 13 11 12 6 9 10 4 2 6 17 7 4 1 6 7 11 14 18 23 26 29 31 22 26 24 22 19 16 15 16 18 18 14 13 18 19 23 18 15 14 14 13 11 7
1 8 10 7 12 10 13 14 8 3 6 6 2 2 5 9 9 6 5 7 12 15 18 19 21 25 33 33 26 29 29 25 21 22 20 17 19 15 12 15 24 24 20 18 15 15 16 14 11
7 8 6 5 2 7 15 10 10 11 15 12 8 2 5 10 4 6 10 9 15 18 21 23 24 25 27 32 34 21 23 27 23 21 18 17 17 18 10 16 19 18 20 21 23 20 16 18 16
2 8 4 5 3 3 9 10 7 12 14 9 4 2 4 1 1 5 9 14 18 20 25 29 30 31 31 31 33 34 29 24 21 17 19 18 18 19 17 16 21 19 19 19 22 26 23 23 20
11 4 3 2 5 5 10 4 11 11 5 6 5 6 4 2 2 3 4 6 10 14 18 22 24 28 36 33 30 25 24 28 23 21 19 17 18 19 15 14 13 14 19 19 21 19 21 28 26
13 4 6 10 9 11 8 18 18 12 8 8 6 8 6 5 4 6 8 10 12 16 19 22 24 26 25 33 29 27 32 29 30 26 21 18 18 15 15 14 14 16 16 22 22 22 23 23 30
4 9 12 14 21 17 16 21 8 15 15 11 10 6 5 7 8 9 12 14 17 20 22 23 24 23 21 31 37 33 26 21 19 18 16 14 20 22 21 23 21 18 17 18 17 24 27 29 24
7 14 18 26 28 16 19 20 24 19 21 16 12 8 6 9 10 12 15 16 18 21 19 17 14 22 31 37 39 35 27 23 17 11 11 12 19 19 19 16 15 18 15 24 28 31 26 16 28
10 10 15 15 19 10 20 24 20 22 25 20 14 11 10 13 14 15 16 15 14 13 10 10 14 22 31 41 44 37 31 22 16 12 5 5 4 10 13 12 16 19 23 19 16 14 19 26 28
17 21 21 9 20 10 23 6 21 22 28 25 20 16 12 9 9 13 14 14 12 10 10 16 22 31 38 41 38 34 29 23 17 13 6 7 5 2 6 6 8 10 12 10 11 14 17 22 25
21 26 20 22 13 19 22 28 17 24 28 28 23 19 16 14 11 16 14 14 16 19 22 24 30 31 33 31 34 33 29 22 21 17 13 11 7 5 1 2 5 6 7 9 11 12 17 23 30
23 24 28 22 8 9 27 31 24 34 30 30 27 23 19 16 14 18 21 23 27 30 33 34 37 36 32 34 34 34 31 25 23 18 13 8 4 4 2 5 7 9 10 10 12 12 12 21 23
32 33 34 29 8 9 27 37 32 33 42 39 34 30 27 22 19 24 29 32 35 38 41 42 44 47 42 37 33 31 30 26 19 19 18 15 11 7 4 5 7 8 11 13 15 17 15 21 24
32 35 30 31 1 22 27 42 45 43 29 26 31 31 29 31 29 28 33 34 40 41 42 42 39 38 36 32 32 30 33 36 33 29 24 21 16 13 11 11 12 12 13 16 20 22 23 25 28
34 31 30 27 16 21 8 21 19 31 29 32 40 40 38 37 33 31 37 37 42 45 45 44 42 41 42 40 40 40 38 36 33 28 23 18 14 11 10 11 12 13 16 18 21 23 25 25 26
17 3 15 22 26 31 36 17 16 11 27 37 45 48 47 44 40 39 40 45 48 49 49 47 47 46 42 38 33 30 31 31 29 25 20 15 12 10 9 9 11 14 17 20 21 23 25 27 27
20 11 4 7 17 26 36 34 28 25 29 31 46 53 52 49 43 40 47 50 51 52 50 47 44 41 38 35 32 29 28 27 24 19 13 12 9 8 9 11 13 15 18 20 23 26 27 28 29
27 16 9 10 11 17 4 27 34 9 12 22 49 63 62 55 51 50 56 53 53 51 49 46 42 40 40 38 35 31 26 23 20 14 11 8 6 4 6 8 11 14 18 21 23 25 28 30 30
34 36 14 13 15 13 4 19 14 3 20 12 49 61 63 60 56 55 56 56 56 54 50 47 45 42 39 34 32 29 27 24 19 15 13 9 6 3 1 5 10 14 16 20 24 26 28 30 32
20 29 30 9 3 8 15 17 11 13 14 17 49 62 67 66 63 64 60 58 58 57 53 49 44 40 39 37 35 32 27 23 20 17 15 12 8 4 1 5 10 16 21 23 25 26 29 31 34
16 19 14 13 12 15 17 26 19 22 30 30 39 58 62 63 62 62 64 64 60 55 51 48 47 44 39 37 35 33 29 26 23 19 15 11 7 1 4 10 15 19 23 27 29 31 32 34 38
15 20 20 16 18 7 9 14 19 29 36 43 41 62 70 72 72 74 74 70 64 59 56 53 50 46 42 39 36 34 32 28 24 20 15 11 6 3 7 14 21 26 28 30 32 33 37 41 44
39 30 42 13 13 19 14 21 4 5 25 42 50 59 67 73 75 74 76 73 69 66 62 59 54 49 46 44 43 40 36 31 25 21 16 13 8 7 14 20 24 28 29 31 34 36 39 42 47
Wind_Direction_850mb
3 60 98 298 236 242 126 104 359 107 126 51 41 17 59 43 21 48 24 150 116 164 184 185 182 181 188 177 173 169 161 150 133 109 94 104 106 47 29 22 21 24 26 26 26 26 29 33 39
70 91 6 272 255 190 120 129 135 66 72 80 82 127 62 78 55 76 72 1 96 163 173 179 178 182 197 190 184 180 177 177 181 125 119 113 89 2 2 7 13 8 10 12 15 16 19 20 26
75 71 272 273 288 72 133 159 111 102 88 130 125 29 38 42 46 63 50 73 97 153 164 191 182 184 195 191 194 194 196 204 187 188 150 112 299 318 353 7 357 355 354 348 355 4 6 6 8
5 269 240 255 191 62 86 128 108 147 118 109 106 97 91 41 59 38 110 92 117 146 165 207 190 185 200 201 202 205 210 208 213 199 192 161 22 46 353 348 352 352 347 327 339 355 356 356 359
335 250 249 245 138 122 122 93 153 167 122 129 223 123 90 46 64 74 91 80 117 138 169 210 199 184 201 211 210 213 216 214 216 222 244 182 282 346 339 348 353 358 9 19 17 3 355 356 355
235 277 242 215 180 148 146 129 189 197 145 124 168 135 88 73 93 84 93 94 109 155 177 191 200 202 206 213 215 219 224 227 228 233 227 217 289 351 9 350 348 350 3 9 3 357 359 3 7
297 266 292 300 185 182 167 164 208 175 163 123 82 196 139 80 77 104 106 127 145 163 171 180 206 211 209 211 214 225 231 235 238 250 251 221 236 292 336 340 343 346 348 355 350 353 354 358 3
300 264 246 231 203 209 158 174 164 236 118 127 20 198 163 238 328 39 214 200 208 202 191 190 194 205 202 221 219 223 230 231 228 236 242 237 241 270 303 318 330 327 322 337 351 355 354 354 349
349 247 234 217 226 206 171 193 177 219 203 141 84 98 236 277 286 235 228 240 226 222 223 221 222 210 206 197 215 225 232 237 235 237 239 245 247 254 275 316 315 333 347 325 324 341 348 347 341
266 267 307 4 241 210 178 231 173 219 190 184 111 18 298 302 277 200 206 221 228 234 236 235 234 230 225 215 205 214 232 236 241 241 240 241 237 223 270 305 327 335 344 351 342 336 332 348 346
190 277 65 178 172 198 200 225 225 248 237 45 240 160 312 238 166 175 210 230 238 247 249 247 242 240 236 228 214 209 215 224 230 239 237 227 229 251 270 295 322 322 330 334 344 350 350 353 342
251 217 245 176 189 199 225 265 247 253 54 161 183 208 176 157 175 171 192 217 235 243 250 253 251 247 240 230 216 201 207 217 230 231 227 233 245 256 265 282 295 298 310 313 320 335 340 337 340
245 225 215 205 186 220 259 249 264 216 182 182 206 175 177 200 229 258 266 272 264 255 255 258 257 250 239 220 201 190 200 209 216 229 235 236 234 239 255 272 261 266 278 296 303 314 321 324 334
13 268 252 232 228 230 226 243 203 203 185 177 169 161 200 228 240 260 265 270 275 275 269 262 255 247 212 190 188 191 184 196 213 235 252 263 262 264 259 260 263 265 272 279 283 299 302 308 316
281 281 258 238 228 232 217 240 226 163 168 174 181 191 231 267 279 273 273 275 274 272 272 265 235 208 197 184 182 183 182 189 201 205 224 257 250 261 269 290 277 279 292 290 293 286 293 294 305
251 252 260 112 172 184 195 266 158 181 183 193 204 217 238 265 261 254 249 244 241 231 215 193 175 175 174 173 180 174 173 179 186 175 190 229 246 258 292 300 284 290 298 283 294 292 293 304 310
211 264 228 230 196 160 204 238 167 195 204 211 213 216 225 235 254 253 226 210 200 168 147 136 140 152 160 169 172 170 168 179 169 167 210 172 167 189 277 309 39 349 347 352 329 319 318 314 316
257 227 256 252 164 216 216 251 173 197 209 214 215 213 211 210 217 227 200 176 151 137 130 136 141 148 158 163 164 163 168 165 162 151 152 136 127 107 26 9 343 313 318 321 321 313 312 313 309
280 284 263 267 104 263 243 253 232 202 213 220 218 214 208 199 208 195 178 163 149 144 140 139 140 139 147 152 152 157 158 156 153 147 147 153 157 174 231 294 290 297 290 288 307 318 329 315 329
246 254 257 268 156 249 268 264 257 205 216 220 220 211 200 188 174 175 172 165 156 151 148 147 148 144 147 154 158 166 157 156 158 146 143 138 138 142 118 81 68 46 30 21 13 17 1 350 352
238 246 253 258 339 241 272 269 252 237 215 218 222 209 197 185 169 168 167 166 162 160 157 156 159 162 162 164 163 162 150 140 136 131 125 116 107 95 82 69 56 49 40 30 27 23 19 16 10
248 234 249 262 253 262 170 282 273 211 210 214 211 200 190 178 168 163 162 161 162 162 162 162 162 162 158 152 148 146 146 144 136 132 124 114 106 96 81 59 47 34 26 16 11 10 8 6 7
252 71 225 243 254 270 254 267 273 192 221 212 205 199 188 180 173 164 162 161 158 155 154 152 151 151 152 152 152 151 147 140 135 130 126 124 113 93 76 53 30 16 14 12 10 5 3 2 2
132 118 111 255 260 256 240 230 259 210 227 202 193 193 184 178 173 169 168 162 160 158 158 158 159 159 159 157 153 152 152 147 138 129 124 113 99 76 47 32 20 13 7 2 0 359 355 356 352
197 183 246 241 210 256 314 215 249 199 186 205 184 186 183 179 177 176 173 168 164 162 161 159 161 163 161 162 161 159 156 153 150 149 154 148 130 88 42 18 9 1 356 352 349 347 344 342 341
200 200 200 241 236 267 24 236 240 313 121 163 184 183 181 181 181 182 179 175 171 168 167 168 170 172 170 171 172 170 170 170 169 173 173 162 152 144 40 340 346 347 343 339 338 336 336 334 333
179 224 229 312 146 274 216 250 242 165 179 180 176 180 183 183 184 185 184 181 178 177 175 176 178 181 181 181 181 180 180 180 181 181 180 181 189 191 287 349 349 349 341 338 334 332 332 331 330
222 172 184 212 226 237 242 241 236 209 197 185 182 186 184 184 186 186 188 187 187 185 183 184 185 187 188 189 189 188 188 188 188 187 191 190 181 174 347 348 343 339 335 333 331 330 329 329 328
185 212 220 215 224 250 279 246 194 201 190 188 187 186 185 187 187 189 192 192 191 191 191 191 192 193 193 197 198 197 195 195 193 194 196 200 208 284 330 342 339 335 330 325 324 325 327 328 327
223 215 206 208 196 232 274 257 102 106 183 180 185 188 190 191 189 190 195 197 195 196 197 200 199 199 201 204 203 204 205 200 202 204 206 217 240 292 328 331 327 325 323 320 320 323 324 324 325